Wind_Speed
19 19 20 21 22 23 24 25 26 27 28 29 30 31 31 32 33 33 34 34 34 35 35 36 37 38 38 40 41 42 43 44 46 48 49 49 51 52 53 56 57 58 60
20 21 22 23 24 26 27 28 29 29 30 31 31 32 32 32 32 32 32 33 33 34 34 35 36 37 38 39 41 42 44 45 48 50 52 52 53 54 55 57 59 60 62
21 22 24 25 26 28 29 30 30 30 31 31 31 31 30 30 30 30 31 31 32 33 34 35 36 37 39 41 43 46 48 50 52 54 56 58 58 58 57 58 60 62 64
23 24 26 27 28 30 30 31 30 30 31 31 30 29 29 29 29 29 30 30 31 33 34 36 38 40 42 45 47 49 52 54 55 58 60 63 65 66 65 64 65 66 67
25 26 28 29 30 31 31 31 31 30 30 30 29 28 28 28 29 30 31 32 34 36 38 40 42 44 46 49 52 54 57 59 61 63 65 67 70 72 74 73 73 73 73
26 28 29 30 31 32 31 31 30 30 29 29 28 29 29 30 31 32 34 35 37 40 42 44 47 49 52 54 57 59 62 65 67 69 71 74 75 77 79 81 81 81 80
28 29 30 31 32 31 31 30 30 29 29 29 29 30 31 32 34 36 37 40 42 45 47 50 52 55 58 60 63 65 68 70 73 75 77 79 81 82 84 86 87 87 86
29 31 31 32 31 31 31 30 30 29 30 31 32 33 34 36 37 40 42 44 47 50 52 55 58 60 63 66 68 71 73 76 78 80 82 84 85 87 89 90 92 93 92
31 32 32 32 32 32 32 31 31 31 32 34 35 36 37 39 42 44 46 49 52 54 57 60 62 65 68 71 74 76 78 80 82 84 86 88 89 91 92 94 95 96 97
32 33 34 34 34 34 33 33 33 33 35 36 37 39 41 43 46 48 51 54 56 59 62 65 67 70 73 76 78 80 82 84 86 88 89 91 92 93 94 95 95 95 96
34 35 36 36 35 35 35 35 35 36 37 39 41 43 45 48 50 53 56 58 61 64 67 69 72 75 78 80 82 84 86 88 89 91 92 93 93 93 93 92 90 89 88
37 37 38 37 36 36 37 37 37 38 39 41 44 46 49 51 54 57 60 63 66 69 72 74 77 80 82 84 86 88 89 91 92 92 93 92 91 89 86 84 82 80 79
38 39 39 38 38 38 38 39 39 41 43 45 48 50 53 55 58 61 64 67 70 73 76 79 81 83 85 87 89 91 91 92 93 92 91 87 84 80 77 75 73 71 69
40 40 40 40 39 40 40 41 42 44 46 49 51 54 56 59 62 65 68 71 74 77 80 82 84 86 88 90 91 92 93 92 90 87 83 78 74 70 68 66 64 63 63
41 41 41 41 41 41 42 44 45 47 49 52 54 57 60 63 66 69 72 75 78 80 83 85 87 89 90 91 92 92 90 87 82 76 71 67 64 62 61 59 58 58 57
42 42 42 42 43 43 45 46 48 50 53 55 57 60 63 66 69 72 75 78 80 83 85 87 89 91 91 91 90 88 84 78 72 66 62 59 57 56 55 54 54 53 53
42 43 43 44 44 45 46 48 51 53 55 58 61 64 67 70 73 76 78 81 83 85 87 89 90 90 89 88 85 79 74 68 63 59 56 54 53 52 51 50 50 49 49
43 43 44 45 46 47 49 51 53 55 58 61 64 67 70 73 76 78 81 83 85 87 89 90 90 88 85 82 76 70 65 60 56 54 52 50 49 48 48 47 46 45 45
43 44 44 46 47 49 51 53 55 58 61 64 67 70 73 76 78 80 83 85 87 88 89 89 87 84 79 73 67 63 58 54 51 50 49 48 46 46 46 45 44 42 41
43 44 45 47 49 51 53 55 58 61 64 67 70 73 76 78 80 83 85 86 88 88 88 86 83 78 71 65 61 58 54 51 49 47 46 45 44 43 43 43 42 41 40
44 45 47 49 51 53 55 58 60 64 67 69 72 75 77 80 82 84 86 87 88 87 85 82 77 70 64 60 56 54 51 49 47 45 43 42 42 41 41 41 40 40 39
45 46 48 50 53 55 58 60 63 67 69 72 74 76 79 81 83 85 85 86 86 84 80 75 68 62 58 55 52 50 48 47 46 43 41 40 40 40 39 39 39 38 37
46 48 50 52 55 58 61 64 66 69 71 73 76 78 80 82 83 84 85 84 82 79 73 68 62 56 53 50 47 46 45 45 43 41 40 40 39 38 37 37 37 36 35
48 50 52 54 57 60 63 66 69 71 73 75 78 80 81 82 83 83 83 81 77 72 67 62 57 51 48 45 44 43 42 41 40 40 39 39 38 37 36 35 35 35 34
50 52 55 58 60 63 65 68 71 73 76 78 80 81 82 82 82 81 79 76 70 66 62 57 52 48 44 42 42 41 39 39 38 37 36 35 35 34 34 34 33 33 33
53 55 58 61 63 66 68 70 73 76 78 80 81 82 82 82 81 78 74 68 63 58 55 52 49 46 44 41 40 39 38 37 36 35 34 33 33 33 32 32 32 32 31
Wind_Direction
288 291 294 295 296 296 297 297 296 295 295 293 293 292 291 290 290 289 288 287 286 286 286 285 285 285 285 284 284 284 284 283 282 282 281 281 280 280 279 279 279 278 278
291 293 295 296 296 297 297 297 297 296 295 294 293 292 291 291 290 289 288 287 287 286 286 287 287 287 287 287 286 286 286 286 285 285 284 282 281 280 280 279 279 279 278
292 294 295 296 296 297 297 297 297 296 296 295 294 293 292 291 290 289 288 288 288 289 289 289 289 289 289 289 289 290 290 289 289 288 288 287 285 283 282 280 280 279 279
292 294 295 296 296 297 298 297 296 296 296 295 294 293 292 292 291 290 290 290 290 291 291 292 292 292 292 292 292 292 292 291 291 290 289 289 288 287 285 283 281 279 279
292 294 296 296 296 297 297 297 296 295 293 292 291 291 291 291 291 292 292 292 292 293 294 294 294 294 294 294 293 293 292 292 291 291 290 289 289 288 288 286 284 282 280
293 295 295 296 296 297 297 297 295 293 290 289 289 290 290 290 291 292 293 293 294 295 295 295 295 295 295 294 294 294 293 293 292 291 291 290 289 288 287 286 285 284 282
294 295 296 297 297 297 297 295 293 290 288 287 288 289 289 289 290 291 292 293 294 295 296 296 296 296 296 296 295 295 294 294 293 292 292 291 290 289 287 286 285 283 282
295 296 297 297 297 296 295 294 292 289 287 286 287 287 287 288 290 291 293 294 295 296 296 297 297 297 297 297 296 296 295 295 294 293 292 292 291 289 288 287 285 284 282
296 297 297 297 296 295 294 292 290 288 287 287 287 287 288 290 291 293 294 294 295 296 297 297 298 298 298 298 297 297 296 295 295 294 293 292 291 290 289 288 286 285 283
297 297 297 296 295 295 294 291 289 288 287 287 288 289 290 292 293 294 295 296 297 298 298 299 299 299 299 299 299 298 298 297 296 296 295 294 292 291 290 288 287 285 284
297 297 296 296 294 294 292 290 289 288 288 288 289 291 292 293 295 296 297 298 299 300 301 301 301 301 301 301 301 300 299 299 298 297 296 295 294 292 291 289 288 287 285
297 297 295 295 293 292 291 290 289 289 290 290 292 293 294 296 297 298 300 301 302 302 303 303 303 303 303 303 302 301 301 300 299 298 297 296 295 293 292 290 289 288 287
296 296 295 294 293 292 291 290 290 291 292 293 294 295 297 298 299 301 302 303 304 304 304 305 305 305 304 304 303 303 302 301 300 299 298 297 295 294 292 291 290 288 287
294 295 294 293 292 292 291 291 291 292 293 295 296 297 299 300 301 303 304 305 305 305 306 306 306 306 306 305 305 304 303 302 301 300 299 297 295 294 292 291 290 289 288
293 294 293 292 292 291 292 292 293 294 295 296 298 299 301 302 303 304 305 306 306 307 307 307 308 308 307 307 306 305 304 303 301 300 298 296 295 294 292 291 290 289 289
292 292 292 291 291 292 292 293 294 295 297 298 299 301 302 303 304 305 306 307 307 308 308 309 309 309 309 308 307 306 304 303 302 300 297 296 294 293 292 292 291 290 289
291 291 291 291 291 292 293 294 295 297 298 299 301 302 303 305 306 307 307 308 309 309 310 310 310 310 310 308 307 306 304 303 301 299 298 296 295 293 293 292 291 291 290
290 290 290 291 292 293 294 295 296 298 299 301 302 304 305 306 307 308 308 309 309 310 311 311 311 311 310 308 307 305 303 302 301 300 298 297 295 294 293 292 292 291 290
290 290 290 291 292 293 295 296 298 299 301 302 304 305 306 307 308 309 309 310 310 311 312 312 312 311 310 308 306 304 303 303 301 301 299 297 296 295 294 294 293 292 290
289 289 290 292 293 294 296 298 299 301 302 304 305 306 307 308 309 310 310 311 312 313 313 313 312 311 309 308 306 305 304 303 302 302 300 298 297 296 295 295 294 293 290
289 290 291 292 294 296 297 299 301 302 304 305 307 308 308 309 310 311 312 312 313 313 313 313 312 311 309 307 306 305 304 304 304 303 301 299 298 297 296 295 295 294 291
290 291 292 294 296 298 299 300 302 303 305 306 308 308 309 310 311 312 313 314 314 314 313 313 311 310 308 307 305 305 304 304 304 303 302 301 299 298 297 295 295 294 292
291 292 294 296 297 299 301 302 303 305 306 307 308 309 310 311 312 313 314 315 315 314 313 312 311 309 308 306 305 305 304 304 304 303 303 302 301 299 297 296 295 294 293
292 294 295 297 299 301 302 303 304 306 307 308 309 310 311 312 313 314 315 315 314 313 312 311 310 309 308 306 305 305 304 303 303 303 302 302 301 300 298 297 296 295 293
294 295 297 299 300 302 303 304 305 307 308 309 310 311 312 313 314 315 315 315 314 312 312 311 310 309 308 307 307 307 306 305 304 303 303 302 301 300 299 298 297 296 295
295 297 299 300 302 303 304 305 307 308 309 310 311 312 313 314 314 315 315 314 313 312 311 311 311 310 310 309 309 308 308 307 306 306 305 304 303 302 301 299 298 296 295
Height
5834 5833 5832 5831 5829 5828 5826 5824 5822 5820 5818 5816 5813 5811 5809 5806 5804 5801 5799 5796 5794 5792 5789 5787 5784 5782 5779 5776 5773 5770 5768 5765 5762 5759 5757 5755 5753 5750 5747 5743 5740 5738 5735
5829 5828 5827 5826 5824 5822 5820 5818 5816 5814 5811 5808 5806 5803 5801 5798 5796 5793 5790 5788 5785 5783 5780 5778 5775 5772 5770 5766 5763 5760 5757 5754 5750 5746 5743 5742 5741 5737 5735 5730 5726 5723 5719
5824 5823 5822 5820 5818 5816 5814 5812 5809 5806 5804 5801 5798 5795 5793 5790 5788 5785 5782 5780 5777 5774 5772 5769 5766 5763 5760 5757 5753 5749 5746 5742 5738 5733 5728 5725 5723 5721 5721 5717 5713 5707 5703
5819 5818 5816 5814 5812 5810 5807 5805 5802 5799 5796 5794 5791 5788 5785 5783 5780 5777 5775 5772 5769 5766 5763 5760 5757 5754 5750 5746 5742 5737 5733 5729 5725 5720 5715 5709 5704 5700 5699 5699 5696 5692 5688
5813 5812 5810 5807 5805 5803 5800 5798 5795 5792 5789 5786 5784 5781 5778 5776 5773 5770 5767 5764 5761 5758 5755 5751 5747 5743 5739 5735 5730 5725 5720 5715 5710 5704 5699 5694 5688 5681 5676 5676 5674 5671 5668
5807 5805 5803 5801 5798 5796 5793 5790 5788 5785 5782 5779 5777 5774 5771 5769 5766 5763 5759 5756 5752 5749 5745 5741 5737 5732 5728 5723 5717 5712 5706 5700 5694 5688 5681 5675 5669 5664 5656 5652 5650 5646 5644
5801 5799 5796 5794 5791 5788 5786 5783 5780 5777 5775 5772 5770 5767 5764 5761 5758 5755 5751 5747 5743 5739 5735 5730 5725 5720 5714 5709 5703 5697 5690 5683 5676 5670 5662 5655 5648 5641 5634 5627 5624 5620 5619
5794 5792 5789 5787 5784 5781 5778 5776 5773 5770 5767 5765 5762 5759 5756 5753 5749 5746 5742 5737 5733 5728 5723 5718 5712 5706 5700 5693 5686 5680 5672 5665 5657 5649 5641 5633 5626 5617 5609 5601 5595 5591 5591
5787 5784 5782 5779 5776 5773 5771 5768 5765 5762 5759 5756 5753 5750 5747 5743 5740 5735 5731 5726 5721 5716 5710 5704 5698 5691 5684 5676 5669 5661 5653 5644 5636 5627 5618 5609 5601 5591 5583 5574 5566 5558 5556
5780 5777 5774 5771 5768 5765 5763 5759 5756 5753 5750 5747 5744 5740 5737 5733 5728 5724 5719 5714 5708 5702 5696 5689 5682 5674 5666 5657 5649 5640 5631 5622 5613 5603 5594 5584 5574 5564 5555 5546 5537 5528 5520
5772 5769 5766 5763 5760 5757 5754 5751 5747 5744 5741 5737 5734 5730 5726 5721 5716 5711 5705 5699 5693 5686 5679 5671 5664 5655 5646 5636 5627 5618 5608 5598 5588 5577 5566 5557 5545 5535 5526 5516 5508 5500 5491
5764 5760 5757 5754 5751 5748 5745 5741 5738 5734 5731 5727 5723 5718 5713 5708 5703 5697 5691 5684 5677 5669 5661 5653 5644 5635 5625 5614 5604 5594 5583 5572 5561 5550 5539 5528 5516 5507 5497 5489 5481 5474 5467
5755 5751 5748 5745 5742 5738 5735 5731 5728 5724 5720 5715 5711 5706 5701 5695 5689 5682 5675 5668 5660 5652 5643 5633 5624 5614 5603 5591 5580 5568 5558 5546 5534 5523 5511 5501 5490 5481 5473 5465 5458 5452 5446
5745 5742 5738 5735 5732 5728 5725 5721 5717 5713 5708 5703 5698 5693 5687 5681 5674 5667 5659 5651 5642 5633 5623 5613 5602 5591 5580 5567 5555 5543 5532 5520 5508 5496 5485 5476 5466 5459 5451 5445 5439 5433 5427
5735 5732 5728 5725 5721 5718 5714 5710 5706 5701 5696 5691 5685 5679 5673 5666 5659 5651 5642 5633 5624 5614 5603 5592 5580 5568 5556 5543 5530 5518 5506 5495 5485 5474 5464 5455 5447 5440 5433 5427 5422 5416 5411
5725 5722 5718 5714 5711 5707 5703 5699 5694 5689 5683 5678 5672 5665 5658 5651 5642 5634 5625 5615 5605 5594 5582 5570 5558 5545 5532 5518 5504 5491 5481 5472 5462 5454 5446 5438 5431 5425 5418 5412 5406 5401 5396
5715 5711 5707 5704 5700 5696 5692 5687 5682 5676 5670 5664 5657 5650 5642 5634 5625 5616 5606 5596 5585 5574 5562 5549 5536 5523 5509 5495 5482 5469 5459 5451 5443 5436 5429 5422 5416 5409 5404 5398 5393 5388 5382
5704 5700 5696 5692 5688 5684 5680 5674 5669 5663 5657 5650 5643 5634 5626 5617 5608 5598 5587 5576 5565 5553 5540 5527 5514 5500 5487 5473 5461 5450 5441 5434 5427 5419 5413 5407 5401 5395 5389 5384 5380 5375 5370
5693 5689 5685 5681 5677 5672 5667 5662 5656 5649 5642 5635 5627 5618 5609 5600 5590 5579 5568 5556 5544 5532 5519 5505 5492 5478 5466 5453 5442 5432 5425 5419 5412 5406 5399 5393 5388 5382 5376 5371 5367 5363 5359
5681 5677 5673 5669 5664 5659 5654 5648 5642 5635 5627 5619 5611 5601 5591 5581 5570 5559 5548 5535 5523 5510 5498 5485 5471 5458 5447 5436 5426 5416 5410 5404 5399 5393 5386 5380 5374 5369 5363 5358 5354 5350 5346
5669 5665 5661 5656 5651 5646 5641 5634 5627 5620 5612 5603 5594 5584 5573 5562 5551 5540 5528 5515 5502 5490 5477 5465 5453 5441 5430 5421 5412 5403 5396 5390 5385 5379 5374 5368 5362 5357 5352 5347 5342 5338 5334
5657 5653 5649 5643 5638 5632 5626 5620 5612 5604 5596 5587 5578 5567 5556 5544 5532 5520 5508 5494 5481 5469 5457 5445 5436 5425 5415 5407 5399 5391 5384 5377 5372 5367 5361 5356 5351 5346 5341 5336 5331 5327 5323
5645 5640 5636 5630 5624 5617 5611 5604 5596 5587 5579 5570 5559 5548 5537 5525 5512 5500 5488 5475 5461 5448 5437 5427 5419 5411 5403 5394 5387 5380 5373 5366 5360 5355 5350 5345 5340 5335 5330 5326 5321 5317 5313
5632 5627 5622 5617 5610 5603 5595 5587 5579 5570 5562 5552 5541 5530 5519 5507 5495 5481 5468 5455 5442 5430 5420 5411 5403 5397 5390 5382 5376 5369 5363 5357 5350 5345 5340 5334 5329 5324 5320 5316 5311 5307 5303
5619 5614 5608 5602 5595 5588 5580 5571 5562 5553 5544 5534 5523 5512 5500 5488 5477 5465 5451 5438 5426 5413 5403 5396 5389 5382 5377 5371 5364 5357 5352 5346 5340 5334 5330 5325 5320 5315 5310 5306 5301 5297 5293
5605 5599 5593 5587 5579 5571 5563 5554 5544 5535 5525 5515 5504 5493 5481 5469 5458 5447 5437 5424 5412 5402 5391 5382 5376 5370 5364 5359 5353 5347 5341 5335 5329 5324 5320 5315 5310 5306 5301 5297 5293 5288 5284